IRIDIUM 66 [+]

Last updated on Thu May 10 2018 00:19:49 GMT+0000 (Coordinated Universal Time)

1 25289U 98021E 18129.40677667 .00000114 00000-0 33717-4 0 9991 2 25289 86.3948 87.4225 0002368 83.5789 276.5677 14.34215094 51765
UTC large
Height (km)
Speed (km/s)
/
Latitude / Longitude
Inclination (degrees)
Orbital Period (minutes)
Azimuth
Elevation
Range (km)
Doppler Factor

Next 0 passes for location: London (51.5072 / 0.1276)

Sorry there are no passes over London.